Location: East Guldeford
(50.9500°N, 0.7500°E)
Time: 18:21:23
(UTC+00:00)

H-2A R/B - Pass Details

Date: 12 May 2021
Orbit: 573 x 598 km, 98.2° (Epoch: 15 June)

Event Time Altitude Azimuth Distance (km) Brightness Sun altitude
Rises 21:16:43 0° 21° (NNE) 2,848 7.4 -12.6°
Reaches altitude 10° 21:19:05 10° 31° (NNE) 1,938 6.4 -12.9°
Maximum altitude 21:22:54 33° 97° (E) 999 4.3 -13.2°
Enters shadow 21:24:53 22° 145° (SE) 1,314 4.6 -13.4°
